This demonstration page uses our WeatherBlox Daily Observations layout. Learn more.

Hourly Observations for August 17, 2020

Temp ( °F °C ) Dew Point ( °F °C ) Humidity (%) Winds ( mph kmh ) Pressure ( in mb ) Visibility ( mi km ) Precip ( " mm )
12:51 am 00:51 Clear 83 28.3 49 9.4 31 31 SE 6 9 29.88 1012 10 16.0934 0 0
1:51 am 01:51 Clear 82 27.8 49 9.4 32 32 SE 6 9 29.87 1012 10 16.0934 0 0
2:51 am 02:51 Clear 79 26.1 49 9.4 35 35 E 6 9 29.88 1012 10 16.0934 0 0
3:51 am 03:51 Clear 79 26.1 48 8.9 34 34 E 6 9 29.9 1012 10 16.0934 0 0
4:51 am 04:51 Clear 82 27.8 48 8.9 31 31 E 10 17 29.91 1013 10 16.0934 0 0
5:51 am 05:51 Sunny 80 26.7 48 8.9 33 33 E 8 13 29.94 1014 10 16.0934 0 0
6:51 am 06:51 Sunny 88 31.1 48 8.9 25 25 E 8 13 29.96 1015 10 16.0934 0 0
7:51 am 07:51 Sunny 90 32.2 48 8.9 24 24 ENE 20 31 29.98 1015 10 16.0934 0 0
8:51 am 08:51 Sunny 93 33.9 49 9.4 22 22 ESE 12 19 29.97 1015 10 16.0934 0 0
9:51 am 09:51 Sunny 95 35 49 9.4 21 21 SE 17 28 29.97 1015 10 16.0934 0 0
10:51 am 10:51 Sunny 97 36.1 50 10 20 20 SSE 15 24 29.96 1015 10 16.0934 0 0
11:51 am 11:51 Sunny 99 37.2 49 9.4 18 18 SE 6 9 29.93 1014 10 16.0934 0 0
12:51 pm 12:51 Sunny 103 39.4 49 9.4 16 16 SE 17 28 29.9 1013 10 16.0934 0 0
1:51 pm 13:51 Sunny 103 39.4 48 8.9 16 16 SSW 9 15 29.87 1012 10 16.0934 0 0
2:51 pm 14:51 Sunny 103 39.4 48 8.9 16 16 SE 16 26 29.85 1011 10 16.0934 0 0
3:51 pm 15:51 Mostly Sunny 104 40 47 8.3 15 15 SE 16 26 29.81 1010 10 16.0934 0 0
4:51 pm 16:51 Sunny 102 38.9 46 7.8 15 15 SSE 8 13 29.81 1009 10 16.0934 0 0
5:51 pm 17:51 Sunny 100 37.8 44 6.7 15 15 SE 6 9 29.82 1010 10 16.0934 0 0
6:51 pm 18:51 Sunny 96 35.6 48 8.9 19 19 VRB 3 6 29.84 1011 10 16.0934 0 0
7:51 pm 19:51 Clear 90 32.2 49 9.4 24 24 NNE 6 9 29.88 1012 10 16.0934 0 0
8:14 pm 20:14 Clear 88 31.1 52 11.1 29 29 ESE 15 24 29.86 1011 10 16.0934 0 0
8:51 pm 20:51 Clear 87 30.6 51 10.6 29 29 ESE 12 19 29.92 1013 10 16.0934 0 0
9:51 pm 21:51 Clear 86 30 50 10 29 29 S 12 19 29.93 1014 10 16.0934 0 0
10:51 pm 22:51 Clear 83 28.3 48 8.9 30 30 ESE 6 9 29.93 1014 10 16.0934 0 0
11:51 pm 23:51 Clear 81 27.2 49 9.4 33 33 SE 7 11 29.93 1014 10 16.0934 0 0

Powered by AerisWeather